User: anonymous   Login
Location: Podia
(1.5569°N, 32.3469°E)
Time: 04:17:01
(UTC+00:00)
Language:

Transit 2A Rocket - Orbit

View from above orbital plane
View from above orbital plane
View from above satellite
View from above satellite

Ground track
Ground track

The orbit data is extracted from the following two-line orbital elements,

1    47U 60007C   20264.43709166 -.00000064 +00000-0 +11040-4 0  9995
2    47 066.6637 261.0125 0234152 234.8269 123.0705 14.42102467148377
Epoch (UTC): 20 September 2020 10:29:24
Eccentricity: 0.0234152
inclination: 66.6637°
perigee height: 584 km
apogee height: 918 km
right ascension of ascending node: 261.0125°
argument of perigee: 234.8269°
revolutions per day: 14.42102467
mean anomaly at epoch: 123.0705°
orbit number at epoch: 14837

The dashed part of the orbit path shows where the satellite is in the earth's shadow,  

DLR